Location: Rottenacker
(48.2350°N, 9.6886°E)
Time: 00:06:54
(UTC+01:00)

ISS - Pass Details

Date: 09 January 2018
Orbit: 402 x 407 km, 51.6° (Epoch: 20 January)

Event Time Altitude Azimuth Distance (km) Brightness Sun altitude
Exits shadow 05:48:59 38° 50° (NE) 645 -2.6 -22.7°
Drops below altitude 10° 05:51:23 10° 83° (E) 1,468 0.0 -22.3°
Sets 05:53:31 0° 90° (E) 2,329 1.5 -22.0°
